一网星座-0069星 (ONEWEB-0069 )

导读

ONEWEB-0069是英国OneWeb星座的低轨通信卫星,于2020年3月21日发射入轨,属于OneWeb一代组网卫星。单星重量约150公斤,设计寿命5年,配备Ku/Ka波段多波束天线,单星通信能力可达7.5Gbps,可提供最高50Mbps下载速率。卫星采用霍尔电推,运行在近地轨道,为全球提供宽带互联网接入服务,是OneWeb全球卫星星座的组成单元,助力OneWeb实现全球网络覆盖。

Basic Information
目录编号:
45430
目录名称:
ONEWEB-0069
国际标识:
2020-020G
轨道中心:
EARTH
卫星名称:
一网星座-0069星
卫星全名:
一网星座-0069星 (ONEWEB-0069 )
卫星状态:
在轨 (已飞行2276 天)
发射日期:
2020-03-21 UTC
国别 :
英国 (GB)
星等 :
--
Orbit Information
数据来源 国际轨道数据 AOE轨道数据
星历时间 2026-06-13T23:24:50+0800
20小时前
查看轨道信息
2026-06-09T16:00:00+0800
5天前
查看轨道信息
半长轴 7595.818km 7595.817km
偏心率 0.0001846 0.0001649
轨道倾角 87.890° 87.889°
近地点辐角 82.239° 85.577°
升交点赤经 21.776° 22.632°
平近点角 277.894° 103.217°
近地点 1216.278km 1216.427km
远地点 1219.084km 1218.933km
周期 109.805分钟 109.805分钟
每日圈数 13.114176 13.114177
Detailed Information
平衡模式:
三轴稳定
覆盖范围:
全球
运营商:
一网卫星公司
运营商所在国:
英国
制造商(研发单位):
一网卫星公司
制造商所在国:
英国
使用方式:
暂无
Satellite Introduction
OneWeb卫星网络由648颗重约125公斤的微型卫星组成,运行在1200公里的轨道上。 每颗卫星都能够提供至少每秒8千兆位的吞吐量,以使用其高吞吐量的Ku频段有效载荷为家庭和移动平台提供互联网接入。该卫星仍在工作。
2D Orbit Map
3D Orbit Map
Orbit Altitude Analysis Chart
Orbit Inclination Analysis Chart
Orbit Comprehensive Analysis Chart
View Comprehensive Chart